This demonstration page uses our WeatherBlox Daily Observations layout. Learn more.

Left ArrowRight Arrow

41.86663, -103.66717

Hourly Observations for January 21, 2016

Temp ( °F °C ) Dew Point ( °F °C ) Humidity (%) Winds ( mph kmh ) Pressure ( in mb ) Visibility ( mi km ) Precip ( " mm )
12:53 am 00:53 Cloudy 30 -1.1 26 -3.3 85 85 NW 8 13 30.14 1021 10 16 N/A
1:53 am 01:53 Cloudy 31 -0.6 27 -2.8 85 85 NW 12 19 30.17 1022 10 16 N/A
2:53 am 02:53 Cloudy 30 -1.1 26 -3.3 85 85 WNW 7 11 30.21 1023 10 16 N/A
3:53 am 03:53 Cloudy 32 undefined 27 -2.8 82 82 NW 15 24 30.23 1024 10 16 N/A
4:53 am 04:53 Cloudy 32 undefined 27 -2.8 82 82 WNW 15 24 30.26 1025 10 16 N/A
5:43 am 05:43 Cloudy 31 -0.6 26 -3.3 82 82 NW 16 26 30.33 1027 10 16 N/A
5:53 am 05:53 Cloudy 31 -0.6 26 -3.3 82 82 NW 13 20 30.29 1026 10 16 N/A
6:18 am 06:18 Cloudy 30 -1 27 -3 86 86 NW 13 20 30.36 1028 10 16 N/A
6:32 am 06:32 Cloudy 30 -1 27 -3 86 86 NW 12 19 30.36 1028 10 16 N/A
6:53 am 06:53 Cloudy 32 undefined 26 -3.3 79 79 NW 13 20 30.32 1027 10 16 N/A
7:53 am 07:53 Mostly Cloudy 31 -0.6 25 -3.9 79 79 NW 13 20 30.33 1027 10 16 N/A
8:53 am 08:53 Mostly Cloudy 34 1.1 27 -2.8 76 76 NW 13 20 30.34 1027 10 16 N/A
9:53 am 09:53 Cloudy 36 2.2 28 -2.2 73 73 NW 14 22 30.35 1028 10 16 N/A
10:14 am 10:14 Cloudy 37 3 28 -2 70 70 NW 14 22 30.36 1028 10 16 N/A
10:53 am 10:53 Cloudy 36 2.2 29 -1.7 76 76 WNW 10 17 30.37 1028 10 16 N/A
11:48 am 11:48 Cloudy 37 3 28 -2 70 70 NW 14 22 30.33 1027 10 16 N/A
11:53 am 11:53 Cloudy 38 3.3 28 -2.2 68 68 NW 13 20 30.34 1027 10 16 N/A
12:17 pm 12:17 Partly Cloudy 40 4.4 28 -2.2 63 63 NW 16 26 30.33 1027 10 16 N/A
12:53 pm 12:53 Sunny 41 5 27 -2.8 57 57 NNW 16 26 30.30 1026 10 16 N/A
1:53 pm 13:53 Cloudy 41 5 27 -2.8 57 57 NW 7 11 30.29 1026 10 16 N/A
2:53 pm 14:53 Mostly Sunny 39 3.9 25 -3.9 57 57 NW 12 19 30.29 1026 10 16 N/A
3:53 pm 15:53 Mostly Cloudy 41 5 25 -3.9 53 53 NW 10 17 30.29 1026 10 16 N/A
4:53 pm 16:53 Mostly Sunny 37 2.8 23 -5 57 57 W 9 15 30.32 1027 10 16 N/A
5:53 pm 17:53 Clear 34 1.1 23 -5 64 64 W 9 15 30.33 1027 10 16 N/A
6:53 pm 18:53 Clear 32 undefined 22 -5.6 66 66 WNW 9 15 30.35 1028 10 16 N/A
7:53 pm 19:53 Clear 30 -1.1 21 -6.1 69 69 WNW 8 13 30.36 1028 10 16 N/A
8:53 pm 20:53 Clear 26 -3.3 20 -6.7 78 78 NW 7 11 30.36 1028 10 16 N/A
9:53 pm 21:53 Clear 26 -3.3 20 -6.7 78 78 N 5 7 30.35 1028 10 16 N/A
10:53 pm 22:53 Clear 24 -4.4 19 -7.2 81 81 NNW 9 15 30.34 1027 10 16 N/A
11:53 pm 23:53 Clear 24 -4.4 19 -7.2 81 81 N 7 11 30.33 1027 10 16 N/A

Powered by AerisWeather